Year,Month,Day,Hour,Minute,Value (Times are PST for windspeed in km/hr)
2013,09,30,00,00,9.90
2013,09,30,00,01,12.20
2013,09,30,00,02,9.50
2013,09,30,00,03,11.30
2013,09,30,00,04,11.70
2013,09,30,00,05,12.60
2013,09,30,00,06,11.80
2013,09,30,00,07,8.40
2013,09,30,00,08,10.90
2013,09,30,00,09,12.20
2013,09,30,00,10,10.90
2013,09,30,00,11,9.00
2013,09,30,00,12,13.60
2013,09,30,00,13,11.00
2013,09,30,00,14,8.50
2013,09,30,00,15,16.50
2013,09,30,00,16,15.00
2013,09,30,00,17,19.10
2013,09,30,00,18,11.40
2013,09,30,00,19,7.90
2013,09,30,00,20,10.10
2013,09,30,00,21,9.70
2013,09,30,00,22,10.50
2013,09,30,00,23,8.20
2013,09,30,00,24,11.30
2013,09,30,00,25,8.70
2013,09,30,00,26,5.30
2013,09,30,00,27,6.40
2013,09,30,00,28,10.90
2013,09,30,00,29,10.00
2013,09,30,00,30,13.40
2013,09,30,00,31,9.30
2013,09,30,00,32,9.30
2013,09,30,00,33,12.20
2013,09,30,00,34,5.10
2013,09,30,00,35,10.90
2013,09,30,00,36,10.10
2013,09,30,00,37,15.40
2013,09,30,00,38,15.90
2013,09,30,00,39,13.80
2013,09,30,00,40,6.20
2013,09,30,00,41,8.90
2013,09,30,00,42,5.90
2013,09,30,00,43,11.50
2013,09,30,00,44,15.00
2013,09,30,00,45,9.90
2013,09,30,00,46,11.70
2013,09,30,00,47,17.90
2013,09,30,00,48,14.30
2013,09,30,00,49,9.80
2013,09,30,00,50,9.50
2013,09,30,00,51,10.90
2013,09,30,00,52,10.60
2013,09,30,00,53,8.90
2013,09,30,00,54,8.80
2013,09,30,00,55,11.60
2013,09,30,00,56,9.30
2013,09,30,00,57,10.30
2013,09,30,00,58,11.20
2013,09,30,00,59,17.80
2013,09,30,01,00,14.20
2013,09,30,01,01,8.50
2013,09,30,01,02,9.60
2013,09,30,01,03,14.90
2013,09,30,01,04,12.90
2013,09,30,01,05,16.60
2013,09,30,01,06,18.50
2013,09,30,01,07,11.90
2013,09,30,01,08,8.90
2013,09,30,01,09,15.90
2013,09,30,01,10,12.60
2013,09,30,01,11,12.10
2013,09,30,01,12,16.90
2013,09,30,01,13,9.40
2013,09,30,01,14,11.80
2013,09,30,01,15,11.00
2013,09,30,01,16,11.50
2013,09,30,01,17,15.60
2013,09,30,01,18,13.20
2013,09,30,01,19,15.40
2013,09,30,01,20,10.50
2013,09,30,01,21,12.40
2013,09,30,01,22,12.40
2013,09,30,01,23,10.40
2013,09,30,01,24,9.70
2013,09,30,01,25,3.90
2013,09,30,01,26,7.40
2013,09,30,01,27,6.50
2013,09,30,01,28,7.30
2013,09,30,01,29,11.70
2013,09,30,01,30,4.00
2013,09,30,01,31,11.70
2013,09,30,01,32,15.80
2013,09,30,01,33,15.60
2013,09,30,01,34,17.10
2013,09,30,01,35,14.10
2013,09,30,01,36,10.90
2013,09,30,01,37,8.90
2013,09,30,01,38,7.80
2013,09,30,01,39,8.70
2013,09,30,01,40,10.20
2013,09,30,01,41,9.40
2013,09,30,01,42,5.50
2013,09,30,01,43,8.90
2013,09,30,01,44,5.80
2013,09,30,01,45,7.60
2013,09,30,01,46,4.30
2013,09,30,01,47,9.40
2013,09,30,01,48,8.50
2013,09,30,01,49,11.30
2013,09,30,01,50,12.90
2013,09,30,01,51,12.00
2013,09,30,01,52,14.20
2013,09,30,01,53,10.40
2013,09,30,01,54,17.50
2013,09,30,01,55,11.80
2013,09,30,01,56,15.30
2013,09,30,01,57,7.70
2013,09,30,01,58,5.40
2013,09,30,01,59,4.40
2013,09,30,02,00,5.20
2013,09,30,02,01,5.30
2013,09,30,02,02,6.90
2013,09,30,02,03,5.90
2013,09,30,02,04,9.30
2013,09,30,02,05,2.60
2013,09,30,02,06,1.50
2013,09,30,02,07,0.00
2013,09,30,02,08,4.90
2013,09,30,02,09,5.30
2013,09,30,02,10,7.50
2013,09,30,02,11,10.40
2013,09,30,02,12,9.30
2013,09,30,02,13,6.10
2013,09,30,02,14,2.60
2013,09,30,02,15,11.60
2013,09,30,02,16,5.60
2013,09,30,02,17,1.40
2013,09,30,02,18,5.00
2013,09,30,02,19,16.40
2013,09,30,02,20,18.40
2013,09,30,02,21,13.20
2013,09,30,02,22,14.40
2013,09,30,02,23,5.60
2013,09,30,02,24,5.20
2013,09,30,02,25,6.90
2013,09,30,02,26,14.80
2013,09,30,02,27,12.30
2013,09,30,02,28,13.10
2013,09,30,02,29,11.70
2013,09,30,02,30,18.60
2013,09,30,02,31,17.90
2013,09,30,02,32,14.50
2013,09,30,02,33,12.40
2013,09,30,02,34,17.10
2013,09,30,02,35,17.40
2013,09,30,02,36,17.30
2013,09,30,02,37,13.70
2013,09,30,02,38,13.00
2013,09,30,02,39,14.50
2013,09,30,02,40,13.00
2013,09,30,02,41,10.30
2013,09,30,02,42,12.60
2013,09,30,02,43,13.00
2013,09,30,02,44,13.60
2013,09,30,02,45,8.90
2013,09,30,02,46,13.00
2013,09,30,02,47,9.70
2013,09,30,02,48,8.30
2013,09,30,02,49,8.70
2013,09,30,02,50,8.60
2013,09,30,02,51,10.00
2013,09,30,02,52,11.50
2013,09,30,02,53,9.20
2013,09,30,02,54,14.10
2013,09,30,02,55,9.40
2013,09,30,02,56,2.70
2013,09,30,02,57,5.70
2013,09,30,02,58,3.00
2013,09,30,02,59,4.20
2013,09,30,03,00,5.30
2013,09,30,03,01,3.40
2013,09,30,03,02,3.90
2013,09,30,03,03,5.40
2013,09,30,03,04,3.10
2013,09,30,03,05,10.40
2013,09,30,03,06,7.60
2013,09,30,03,07,7.00
2013,09,30,03,08,4.50
2013,09,30,03,09,8.80
2013,09,30,03,10,6.10
2013,09,30,03,11,13.50
2013,09,30,03,12,20.20
2013,09,30,03,13,11.30
2013,09,30,03,14,12.60
2013,09,30,03,15,20.30
2013,09,30,03,16,7.80
2013,09,30,03,17,11.40
2013,09,30,03,18,17.30
2013,09,30,03,19,16.10
2013,09,30,03,20,17.90
2013,09,30,03,21,20.20
2013,09,30,03,22,22.00
2013,09,30,03,23,13.60
2013,09,30,03,24,11.50
2013,09,30,03,25,10.30
2013,09,30,03,26,13.00
2013,09,30,03,27,14.20
2013,09,30,03,28,10.10
2013,09,30,03,29,11.20
2013,09,30,03,30,12.40
2013,09,30,03,31,13.00
2013,09,30,03,32,13.80
2013,09,30,03,33,8.20
2013,09,30,03,34,9.10
2013,09,30,03,35,11.70
2013,09,30,03,36,19.20
2013,09,30,03,37,10.10
2013,09,30,03,38,10.10
2013,09,30,03,39,14.10
2013,09,30,03,40,16.60
2013,09,30,03,41,15.90
2013,09,30,03,42,17.10
2013,09,30,03,43,9.00
2013,09,30,03,44,13.30
2013,09,30,03,45,13.40
2013,09,30,03,46,8.10
2013,09,30,03,47,11.10
2013,09,30,03,48,11.60
2013,09,30,03,49,12.70
2013,09,30,03,50,8.70
2013,09,30,03,51,8.80
2013,09,30,03,52,12.30
2013,09,30,03,53,12.90
2013,09,30,03,54,11.80
2013,09,30,03,55,8.80
2013,09,30,03,56,10.40
2013,09,30,03,57,7.00
2013,09,30,03,58,6.10
2013,09,30,03,59,6.60
2013,09,30,04,00,5.70
2013,09,30,04,01,7.40
2013,09,30,04,02,11.60
2013,09,30,04,03,5.00
2013,09,30,04,04,7.50
2013,09,30,04,05,9.70
2013,09,30,04,06,9.50
2013,09,30,04,07,7.20
2013,09,30,04,08,5.80
2013,09,30,04,09,8.90
2013,09,30,04,10,11.60
2013,09,30,04,11,8.70
2013,09,30,04,12,9.40
2013,09,30,04,13,7.10
2013,09,30,04,14,7.30
2013,09,30,04,15,13.40
2013,09,30,04,16,7.60
2013,09,30,04,17,3.70
2013,09,30,04,18,5.00
2013,09,30,04,19,7.60
2013,09,30,04,20,6.70
2013,09,30,04,21,5.10
2013,09,30,04,22,7.60
2013,09,30,04,23,3.40
2013,09,30,04,24,9.30
2013,09,30,04,25,7.60
2013,09,30,04,26,0.30
2013,09,30,04,27,6.80
2013,09,30,04,28,5.80
2013,09,30,04,29,4.20
2013,09,30,04,30,3.50
2013,09,30,04,31,6.50
2013,09,30,04,32,5.00
2013,09,30,04,33,4.40
2013,09,30,04,34,5.60
2013,09,30,04,35,6.70
2013,09,30,04,36,9.10
2013,09,30,04,37,6.00
2013,09,30,04,38,2.40
2013,09,30,04,39,6.40
2013,09,30,04,40,6.40
2013,09,30,04,41,6.10
2013,09,30,04,42,8.20
2013,09,30,04,43,8.90
2013,09,30,04,44,5.60
2013,09,30,04,45,11.20
2013,09,30,04,46,19.00
2013,09,30,04,47,11.40
2013,09,30,04,48,10.30
2013,09,30,04,49,14.80
2013,09,30,04,50,15.40
2013,09,30,04,51,10.20
2013,09,30,04,52,11.00
2013,09,30,04,53,11.70
2013,09,30,04,54,9.50
2013,09,30,04,55,7.90
2013,09,30,04,56,9.50
2013,09,30,04,57,8.90
2013,09,30,04,58,13.20
2013,09,30,04,59,10.30
2013,09,30,05,00,18.30
2013,09,30,05,01,13.50
2013,09,30,05,02,7.40
2013,09,30,05,03,11.60
2013,09,30,05,04,18.40
2013,09,30,05,05,17.80
2013,09,30,05,06,11.80
2013,09,30,05,07,11.00
2013,09,30,05,08,10.60
2013,09,30,05,09,4.90
2013,09,30,05,10,6.60
2013,09,30,05,11,9.70
2013,09,30,05,12,1.40
2013,09,30,05,13,6.60
2013,09,30,05,14,5.30
2013,09,30,05,15,5.20
2013,09,30,05,16,8.30
2013,09,30,05,17,9.30
2013,09,30,05,18,4.20
2013,09,30,05,19,3.00
2013,09,30,05,20,3.70
2013,09,30,05,21,2.40
2013,09,30,05,22,0.00
2013,09,30,05,23,0.90
2013,09,30,05,24,3.20
2013,09,30,05,25,1.40
2013,09,30,05,26,0.00
2013,09,30,05,27,1.50
2013,09,30,05,28,9.00
2013,09,30,05,29,7.40
2013,09,30,05,30,4.30
2013,09,30,05,31,6.70
2013,09,30,05,32,1.80
2013,09,30,05,33,3.60
2013,09,30,05,34,7.60
2013,09,30,05,35,6.90
2013,09,30,05,36,0.00
2013,09,30,05,37,0.00
2013,09,30,05,38,0.00
2013,09,30,05,39,6.60
2013,09,30,05,40,12.30
2013,09,30,05,41,4.30
2013,09,30,05,42,8.10
2013,09,30,05,43,8.30
2013,09,30,05,44,16.70
2013,09,30,05,45,15.80
2013,09,30,05,46,6.10
2013,09,30,05,47,8.90
2013,09,30,05,48,7.80
2013,09,30,05,49,4.80
2013,09,30,05,50,6.00
2013,09,30,05,51,5.60
2013,09,30,05,52,6.70
2013,09,30,05,53,6.00
2013,09,30,05,54,4.70
2013,09,30,05,55,11.20
2013,09,30,05,56,4.10
2013,09,30,05,57,2.70
2013,09,30,05,58,3.90
2013,09,30,05,59,0.00
2013,09,30,06,00,0.00
2013,09,30,06,01,0.00
2013,09,30,06,02,0.00
2013,09,30,06,03,0.00
2013,09,30,06,04,0.00
2013,09,30,06,05,0.00
2013,09,30,06,06,1.40
2013,09,30,06,07,2.70
2013,09,30,06,08,1.90
2013,09,30,06,09,2.30
2013,09,30,06,10,0.60
2013,09,30,06,11,0.80
2013,09,30,06,12,0.00
2013,09,30,06,13,0.00
2013,09,30,06,14,0.00
2013,09,30,06,15,0.00
2013,09,30,06,16,0.00
2013,09,30,06,17,0.00
2013,09,30,06,18,0.00
2013,09,30,06,19,0.00
2013,09,30,06,20,0.00
2013,09,30,06,21,0.00
2013,09,30,06,22,0.00
2013,09,30,06,23,0.00
2013,09,30,06,24,0.00
2013,09,30,06,25,0.00
2013,09,30,06,26,0.00
2013,09,30,06,27,0.00
2013,09,30,06,28,0.00
2013,09,30,06,29,0.00
2013,09,30,06,30,0.00
2013,09,30,06,31,0.00
2013,09,30,06,32,0.00
2013,09,30,06,33,0.00
2013,09,30,06,34,0.00
2013,09,30,06,35,0.00
2013,09,30,06,36,0.00
2013,09,30,06,37,0.00
2013,09,30,06,38,0.00
2013,09,30,06,39,0.00
2013,09,30,06,40,0.00
2013,09,30,06,41,0.00
2013,09,30,06,42,0.00
2013,09,30,06,43,0.00
2013,09,30,06,44,0.00
2013,09,30,06,45,0.00
2013,09,30,06,46,0.00
2013,09,30,06,47,0.00
2013,09,30,06,48,0.00
2013,09,30,06,49,0.00
2013,09,30,06,50,0.00
2013,09,30,06,51,0.00
2013,09,30,06,52,0.00
2013,09,30,06,53,0.00
2013,09,30,06,54,0.00
2013,09,30,06,55,0.00
2013,09,30,06,56,0.00
2013,09,30,06,57,0.00
2013,09,30,06,58,0.00
2013,09,30,06,59,0.00
2013,09,30,07,00,0.00
2013,09,30,07,01,0.00
2013,09,30,07,02,0.00
2013,09,30,07,03,0.00
2013,09,30,07,04,0.00
2013,09,30,07,05,0.00
2013,09,30,07,06,0.00
2013,09,30,07,07,0.00
2013,09,30,07,08,0.00
2013,09,30,07,09,0.00
2013,09,30,07,10,0.00
2013,09,30,07,11,0.00
2013,09,30,07,12,2.30
2013,09,30,07,13,0.00
2013,09,30,07,14,1.90
2013,09,30,07,15,8.40
2013,09,30,07,16,6.90
2013,09,30,07,17,6.60
2013,09,30,07,18,4.90
2013,09,30,07,19,1.90
2013,09,30,07,20,6.30
2013,09,30,07,21,6.10
2013,09,30,07,22,5.30
2013,09,30,07,23,3.20
2013,09,30,07,24,3.60
2013,09,30,07,25,4.30
2013,09,30,07,26,5.10
2013,09,30,07,27,2.90
2013,09,30,07,28,2.50
2013,09,30,07,29,8.60
2013,09,30,07,30,6.50
2013,09,30,07,31,6.10
2013,09,30,07,32,11.10
2013,09,30,07,33,9.70
2013,09,30,07,34,3.70
2013,09,30,07,35,8.40
2013,09,30,07,36,7.50
2013,09,30,07,37,9.10
2013,09,30,07,38,6.20
2013,09,30,07,39,8.40
2013,09,30,07,40,8.30
2013,09,30,07,41,10.30
2013,09,30,07,42,9.50
2013,09,30,07,43,6.90
2013,09,30,07,44,4.30
2013,09,30,07,45,5.90
2013,09,30,07,46,11.30
2013,09,30,07,47,9.80
2013,09,30,07,48,7.10
2013,09,30,07,49,8.10
2013,09,30,07,50,9.70
2013,09,30,07,51,8.30
2013,09,30,07,52,6.20
2013,09,30,07,53,11.50
2013,09,30,07,54,8.50
2013,09,30,07,55,9.90
2013,09,30,07,56,13.80
2013,09,30,07,57,13.10
2013,09,30,07,58,9.30
2013,09,30,07,59,9.10
2013,09,30,08,00,9.70
2013,09,30,08,01,12.20
2013,09,30,08,02,9.10
2013,09,30,08,03,11.10
2013,09,30,08,04,11.40
2013,09,30,08,05,7.70
2013,09,30,08,06,8.80
2013,09,30,08,07,6.30
2013,09,30,08,08,6.90
2013,09,30,08,09,7.40
2013,09,30,08,10,6.10
2013,09,30,08,11,6.80
2013,09,30,08,12,14.70
2013,09,30,08,13,13.60
2013,09,30,08,14,9.30
2013,09,30,08,15,10.30
2013,09,30,08,16,11.80
2013,09,30,08,17,12.90
2013,09,30,08,18,19.50
2013,09,30,08,19,12.10
2013,09,30,08,20,8.90
2013,09,30,08,21,11.20
2013,09,30,08,22,9.60
2013,09,30,08,23,7.30
2013,09,30,08,24,1.40
2013,09,30,08,25,6.90
2013,09,30,08,26,9.40
2013,09,30,08,27,7.70
2013,09,30,08,28,9.60
2013,09,30,08,29,5.70
2013,09,30,08,30,4.30
2013,09,30,08,31,6.00
2013,09,30,08,32,8.30
2013,09,30,08,33,4.80
2013,09,30,08,34,8.50
2013,09,30,08,35,9.50
2013,09,30,08,36,4.50
2013,09,30,08,37,5.90
2013,09,30,08,38,0.00
2013,09,30,08,39,0.00
2013,09,30,08,40,2.90
2013,09,30,08,41,5.20
2013,09,30,08,42,0.00
2013,09,30,08,43,2.60
2013,09,30,08,44,2.80
2013,09,30,08,45,5.40
2013,09,30,08,46,0.00
2013,09,30,08,47,0.00
2013,09,30,08,48,0.00
2013,09,30,08,49,0.00
2013,09,30,08,50,0.00
2013,09,30,08,51,1.40
2013,09,30,08,52,0.00
2013,09,30,08,53,0.20
2013,09,30,08,54,3.50
2013,09,30,08,55,4.80
2013,09,30,08,56,2.10
2013,09,30,08,57,0.40
2013,09,30,08,58,0.00
2013,09,30,08,59,0.80
2013,09,30,09,00,2.90
2013,09,30,09,01,5.20
2013,09,30,09,02,4.70
2013,09,30,09,03,0.00
2013,09,30,09,04,5.70
2013,09,30,09,05,6.20
2013,09,30,09,06,0.80
2013,09,30,09,07,3.40
2013,09,30,09,08,7.60
2013,09,30,09,09,7.40
2013,09,30,09,10,6.30
2013,09,30,09,11,8.40
2013,09,30,09,12,5.20
2013,09,30,09,13,7.50
2013,09,30,09,14,4.90
2013,09,30,09,15,8.10
2013,09,30,09,16,6.70
2013,09,30,09,17,7.00
2013,09,30,09,18,3.90
2013,09,30,09,19,2.30
2013,09,30,09,20,6.30
2013,09,30,09,21,7.40
2013,09,30,09,22,4.30
2013,09,30,09,23,0.00
2013,09,30,09,24,6.60
2013,09,30,09,25,4.60
2013,09,30,09,26,5.80
2013,09,30,09,27,4.70
2013,09,30,09,28,2.60
2013,09,30,09,29,1.90
2013,09,30,09,30,5.50
2013,09,30,09,31,9.00
2013,09,30,09,32,6.20
2013,09,30,09,33,8.40
2013,09,30,09,34,5.90
2013,09,30,09,35,6.50
2013,09,30,09,36,4.30
2013,09,30,09,37,5.30
2013,09,30,09,38,4.30
2013,09,30,09,39,3.80
2013,09,30,09,40,2.80
2013,09,30,09,41,3.80
2013,09,30,09,42,6.60
2013,09,30,09,43,6.30
2013,09,30,09,44,6.70
2013,09,30,09,45,15.30
2013,09,30,09,46,13.00
2013,09,30,09,47,11.80
2013,09,30,09,48,8.00
2013,09,30,09,49,12.30
2013,09,30,09,50,7.70
2013,09,30,09,51,8.00
2013,09,30,09,52,8.20
2013,09,30,09,53,11.30
2013,09,30,09,54,12.70
2013,09,30,09,55,10.70
2013,09,30,09,56,8.50
2013,09,30,09,57,12.00
2013,09,30,09,58,7.10
2013,09,30,09,59,9.50
2013,09,30,10,00,8.60
2013,09,30,10,01,10.40
2013,09,30,10,02,7.70
2013,09,30,10,03,6.70
2013,09,30,10,04,0.10
2013,09,30,10,05,4.40
2013,09,30,10,06,2.50
2013,09,30,10,07,7.50
2013,09,30,10,08,7.60
2013,09,30,10,09,4.10
2013,09,30,10,10,7.20
2013,09,30,10,11,6.80
2013,09,30,10,12,4.70
2013,09,30,10,13,7.60
2013,09,30,10,14,1.90
2013,09,30,10,15,5.80
2013,09,30,10,16,8.50
2013,09,30,10,17,7.80
2013,09,30,10,18,7.50
2013,09,30,10,19,3.70
2013,09,30,10,20,5.20
2013,09,30,10,21,8.20
2013,09,30,10,22,4.40
2013,09,30,10,23,3.00
2013,09,30,10,24,7.20
2013,09,30,10,25,7.80
2013,09,30,10,26,10.00
2013,09,30,10,27,6.60
2013,09,30,10,28,7.50
2013,09,30,10,29,9.30
2013,09,30,10,30,10.50
2013,09,30,10,31,5.60
2013,09,30,10,32,10.80
2013,09,30,10,33,8.70
2013,09,30,10,34,3.10
2013,09,30,10,35,8.70
2013,09,30,10,36,4.90
2013,09,30,10,37,3.30
2013,09,30,10,38,1.00
2013,09,30,10,39,4.10
2013,09,30,10,40,3.90
2013,09,30,10,41,5.30
2013,09,30,10,42,4.60
2013,09,30,10,43,5.50
2013,09,30,10,44,7.20
2013,09,30,10,45,8.30
2013,09,30,10,46,5.20
2013,09,30,10,47,9.50
2013,09,30,10,48,7.40
2013,09,30,10,49,7.80
2013,09,30,10,50,7.90
2013,09,30,10,51,4.40
2013,09,30,10,52,4.50
2013,09,30,10,53,2.50
2013,09,30,10,54,0.00
2013,09,30,10,55,2.80
2013,09,30,10,56,7.20
2013,09,30,10,57,5.10
2013,09,30,10,58,11.30
2013,09,30,10,59,9.10
2013,09,30,11,00,6.00
2013,09,30,11,01,5.40
2013,09,30,11,02,6.90
2013,09,30,11,03,3.30
2013,09,30,11,04,0.00
2013,09,30,11,05,0.00
2013,09,30,11,06,6.40
2013,09,30,11,07,1.80
2013,09,30,11,08,0.00
2013,09,30,11,09,1.40
2013,09,30,11,10,5.10
2013,09,30,11,11,5.60
2013,09,30,11,12,2.30
2013,09,30,11,13,0.00
2013,09,30,11,14,7.10
2013,09,30,11,15,5.10
2013,09,30,11,16,5.60
2013,09,30,11,17,5.60
2013,09,30,11,18,8.80
2013,09,30,11,19,7.10
2013,09,30,11,20,6.10
2013,09,30,11,21,6.50
2013,09,30,11,22,10.00
2013,09,30,11,23,5.70
2013,09,30,11,24,7.60
2013,09,30,11,25,9.00
2013,09,30,11,26,7.50
2013,09,30,11,27,7.30
2013,09,30,11,28,6.80
2013,09,30,11,29,1.30
2013,09,30,11,30,4.00
2013,09,30,11,31,2.30
2013,09,30,11,32,0.10
2013,09,30,11,33,6.80
2013,09,30,11,34,13.80
2013,09,30,11,35,15.40
2013,09,30,11,36,10.10
2013,09,30,11,37,5.90
2013,09,30,11,38,10.00
2013,09,30,11,39,11.50
2013,09,30,11,40,6.50
2013,09,30,11,41,7.70
2013,09,30,11,42,7.00
2013,09,30,11,43,7.10
2013,09,30,11,44,6.00
2013,09,30,11,45,2.60
2013,09,30,11,46,5.70
2013,09,30,11,47,2.40
2013,09,30,11,48,6.80
2013,09,30,11,49,1.30
2013,09,30,11,50,2.30
2013,09,30,11,51,1.00
2013,09,30,11,52,1.50
2013,09,30,11,53,0.00
2013,09,30,11,54,0.00
2013,09,30,11,55,6.40
2013,09,30,11,56,11.20
2013,09,30,11,57,14.40
2013,09,30,11,58,14.10
2013,09,30,11,59,12.30
2013,09,30,12,00,10.00
2013,09,30,12,01,5.80
2013,09,30,12,02,12.30
2013,09,30,12,03,9.40
2013,09,30,12,04,8.50
2013,09,30,12,05,5.80
2013,09,30,12,06,9.60
2013,09,30,12,07,8.50
2013,09,30,12,08,10.50
2013,09,30,12,09,10.10
2013,09,30,12,10,6.80
2013,09,30,12,11,8.10
2013,09,30,12,12,6.30
2013,09,30,12,13,7.70
2013,09,30,12,14,11.30
2013,09,30,12,15,9.40
2013,09,30,12,16,5.50
2013,09,30,12,17,2.60
2013,09,30,12,18,1.50
2013,09,30,12,19,0.00
2013,09,30,12,20,0.00
2013,09,30,12,21,0.00
2013,09,30,12,22,3.90
2013,09,30,12,23,5.60
2013,09,30,12,24,5.60
2013,09,30,12,25,6.40
2013,09,30,12,26,8.10
2013,09,30,12,27,5.10
2013,09,30,12,28,15.90
2013,09,30,12,29,10.90
2013,09,30,12,30,5.30
2013,09,30,12,31,0.60
2013,09,30,12,32,4.80
2013,09,30,12,33,0.10
2013,09,30,12,34,0.00
2013,09,30,12,35,4.30
2013,09,30,12,36,4.50
2013,09,30,12,37,11.30
2013,09,30,12,38,7.40
2013,09,30,12,39,4.30
2013,09,30,12,40,8.90
2013,09,30,12,41,7.10
2013,09,30,12,42,13.10
2013,09,30,12,43,8.20
2013,09,30,12,44,6.20
2013,09,30,12,45,5.90
2013,09,30,12,46,8.60
2013,09,30,12,47,5.90
2013,09,30,12,48,8.20
2013,09,30,12,49,4.80
2013,09,30,12,50,6.20
2013,09,30,12,51,6.00
2013,09,30,12,52,4.50
2013,09,30,12,53,4.90
2013,09,30,12,54,9.10
2013,09,30,12,55,9.70
2013,09,30,12,56,5.80
2013,09,30,12,57,5.20
2013,09,30,12,58,6.80
2013,09,30,12,59,5.80
2013,09,30,13,00,7.40
2013,09,30,13,01,6.80
2013,09,30,13,02,7.00
2013,09,30,13,03,7.30
2013,09,30,13,04,15.30
2013,09,30,13,05,14.00
2013,09,30,13,06,14.00
2013,09,30,13,07,12.00
2013,09,30,13,08,12.20
2013,09,30,13,09,7.80
2013,09,30,13,10,10.90
2013,09,30,13,11,6.60
2013,09,30,13,12,10.80
2013,09,30,13,13,8.50
2013,09,30,13,14,8.40
2013,09,30,13,15,7.00
2013,09,30,13,16,7.90
2013,09,30,13,17,8.40
2013,09,30,13,18,5.60
2013,09,30,13,19,6.20
2013,09,30,13,20,5.90
2013,09,30,13,21,7.50
2013,09,30,13,22,6.70
2013,09,30,13,23,2.90
2013,09,30,13,24,0.00
2013,09,30,13,25,0.00
2013,09,30,13,26,0.00
2013,09,30,13,27,0.00
2013,09,30,13,28,0.00
2013,09,30,13,29,5.50
2013,09,30,13,30,5.30
2013,09,30,13,31,1.00
2013,09,30,13,32,0.00
2013,09,30,13,33,0.00
2013,09,30,13,34,0.50
2013,09,30,13,35,6.80
2013,09,30,13,36,6.10
2013,09,30,13,37,4.60
2013,09,30,13,38,7.30
2013,09,30,13,39,0.00
2013,09,30,13,40,0.00
2013,09,30,13,41,0.00
2013,09,30,13,42,3.90
2013,09,30,13,43,8.60
2013,09,30,13,44,10.20
2013,09,30,13,45,0.00
2013,09,30,13,46,6.70
2013,09,30,13,47,7.90
2013,09,30,13,48,2.20
2013,09,30,13,49,5.20
2013,09,30,13,50,4.40
2013,09,30,13,51,4.50
2013,09,30,13,52,9.20
2013,09,30,13,53,8.40
2013,09,30,13,54,3.80
2013,09,30,13,55,7.20
2013,09,30,13,56,6.70
2013,09,30,13,57,6.50
2013,09,30,13,58,12.90
2013,09,30,13,59,8.00
2013,09,30,14,00,8.40
2013,09,30,14,01,7.80
2013,09,30,14,02,6.90
2013,09,30,14,03,8.50
2013,09,30,14,04,11.70
2013,09,30,14,05,8.50
2013,09,30,14,06,13.10
2013,09,30,14,07,12.10
2013,09,30,14,08,9.10
2013,09,30,14,09,5.30
2013,09,30,14,10,11.20
2013,09,30,14,11,9.80
2013,09,30,14,12,1.70
2013,09,30,14,13,4.80
2013,09,30,14,14,7.90
2013,09,30,14,15,8.80
2013,09,30,14,16,13.00
2013,09,30,14,17,12.20
2013,09,30,14,18,9.70
2013,09,30,14,19,7.30
2013,09,30,14,20,8.30
2013,09,30,14,21,14.70
2013,09,30,14,22,8.80
2013,09,30,14,23,10.10
2013,09,30,14,24,4.40
2013,09,30,14,25,5.20
2013,09,30,14,26,13.40
2013,09,30,14,27,13.10
2013,09,30,14,28,4.80
2013,09,30,14,29,6.90
2013,09,30,14,30,10.30
2013,09,30,14,31,9.00
2013,09,30,14,32,10.00
2013,09,30,14,33,8.70
2013,09,30,14,34,11.20
2013,09,30,14,35,13.20
2013,09,30,14,36,4.80
2013,09,30,14,37,6.40
2013,09,30,14,38,7.70
2013,09,30,14,39,14.50
2013,09,30,14,40,13.40
2013,09,30,14,41,13.40
2013,09,30,14,42,11.40
2013,09,30,14,43,8.40
2013,09,30,14,44,6.40
2013,09,30,14,45,6.80
2013,09,30,14,46,5.20
2013,09,30,14,47,12.40
2013,09,30,14,48,8.80
2013,09,30,14,49,8.00
2013,09,30,14,50,4.70
2013,09,30,14,51,7.30
2013,09,30,14,52,5.50
2013,09,30,14,53,6.80
2013,09,30,14,54,6.40
2013,09,30,14,55,6.30
2013,09,30,14,56,9.00
2013,09,30,14,57,7.90
2013,09,30,14,58,6.30
2013,09,30,14,59,6.80
2013,09,30,15,00,15.60
2013,09,30,15,01,10.00
2013,09,30,15,02,7.70
2013,09,30,15,03,11.30
2013,09,30,15,04,13.40
2013,09,30,15,05,9.70
2013,09,30,15,06,7.10
2013,09,30,15,07,6.50
2013,09,30,15,08,6.60
2013,09,30,15,09,6.00
2013,09,30,15,10,7.90
2013,09,30,15,11,8.70
2013,09,30,15,12,4.90
2013,09,30,15,13,6.40
2013,09,30,15,14,7.00
2013,09,30,15,15,13.00
2013,09,30,15,16,7.40
2013,09,30,15,17,9.30
2013,09,30,15,18,7.40
2013,09,30,15,19,7.60
2013,09,30,15,20,10.00
2013,09,30,15,21,8.80
2013,09,30,15,22,6.10
2013,09,30,15,23,9.30
2013,09,30,15,24,11.50
2013,09,30,15,25,11.00
2013,09,30,15,26,3.00
2013,09,30,15,27,9.30
2013,09,30,15,28,7.50
2013,09,30,15,29,1.80
2013,09,30,15,30,6.00
2013,09,30,15,31,3.00
2013,09,30,15,32,3.20
2013,09,30,15,33,6.00
2013,09,30,15,34,2.90
2013,09,30,15,35,0.00
2013,09,30,15,36,0.80
2013,09,30,15,37,2.80
2013,09,30,15,38,8.10
2013,09,30,15,39,0.40
2013,09,30,15,40,0.00
2013,09,30,15,41,0.00
2013,09,30,15,42,3.50
2013,09,30,15,43,3.30
2013,09,30,15,44,7.00
2013,09,30,15,45,3.00
2013,09,30,15,46,0.00
2013,09,30,15,47,0.00
2013,09,30,15,48,0.00
2013,09,30,15,49,0.00
2013,09,30,15,50,0.00
2013,09,30,15,51,0.00
2013,09,30,15,52,0.60
2013,09,30,15,53,0.00
2013,09,30,15,54,3.00
2013,09,30,15,55,2.10
2013,09,30,15,56,3.90
2013,09,30,15,57,6.40
2013,09,30,15,58,1.10
2013,09,30,15,59,7.20
2013,09,30,16,00,5.30
2013,09,30,16,01,3.60
2013,09,30,16,02,4.60
2013,09,30,16,03,5.30
2013,09,30,16,04,4.80
2013,09,30,16,05,6.60
2013,09,30,16,06,8.20
2013,09,30,16,07,5.60
2013,09,30,16,08,3.60
2013,09,30,16,09,0.00
2013,09,30,16,10,0.00
2013,09,30,16,11,4.10
2013,09,30,16,12,0.80
2013,09,30,16,13,4.40
2013,09,30,16,14,2.10
2013,09,30,16,15,11.30
2013,09,30,16,16,9.40
2013,09,30,16,17,2.30
2013,09,30,16,18,5.60
2013,09,30,16,19,2.00
2013,09,30,16,20,0.00
2013,09,30,16,21,0.00
2013,09,30,16,22,7.90
2013,09,30,16,23,6.00
2013,09,30,16,24,7.70
2013,09,30,16,25,4.50
2013,09,30,16,26,2.60
2013,09,30,16,27,6.10
2013,09,30,16,28,9.90
2013,09,30,16,29,7.40
2013,09,30,16,30,6.40
2013,09,30,16,31,6.00
2013,09,30,16,32,6.70
2013,09,30,16,33,8.60
2013,09,30,16,34,8.90
2013,09,30,16,35,4.20
2013,09,30,16,36,14.90
2013,09,30,16,37,7.00
2013,09,30,16,38,11.00
2013,09,30,16,39,9.00
2013,09,30,16,40,13.40
2013,09,30,16,41,10.60
2013,09,30,16,42,13.10
2013,09,30,16,43,7.80
2013,09,30,16,44,13.80
2013,09,30,16,45,11.20
2013,09,30,16,46,12.70
2013,09,30,16,47,5.60
2013,09,30,16,48,4.10
2013,09,30,16,49,3.90
2013,09,30,16,50,3.90
2013,09,30,16,51,10.00
2013,09,30,16,52,4.50
2013,09,30,16,53,6.80
2013,09,30,16,54,1.10
2013,09,30,16,55,2.30
2013,09,30,16,56,2.70
2013,09,30,16,57,1.30
2013,09,30,16,58,2.90
2013,09,30,16,59,2.60
2013,09,30,17,00,0.20
2013,09,30,17,01,3.70
2013,09,30,17,02,0.00
2013,09,30,17,03,0.00
2013,09,30,17,04,2.30
2013,09,30,17,05,0.50
2013,09,30,17,06,7.30
2013,09,30,17,07,6.40
2013,09,30,17,08,3.20
2013,09,30,17,09,7.30
2013,09,30,17,10,7.50
2013,09,30,17,11,8.20
2013,09,30,17,12,9.10
2013,09,30,17,13,7.70
2013,09,30,17,14,8.60
2013,09,30,17,15,18.40
2013,09,30,17,16,18.30
2013,09,30,17,17,19.90
2013,09,30,17,18,19.60
2013,09,30,17,19,13.70
2013,09,30,17,20,19.60
2013,09,30,17,21,16.60
2013,09,30,17,22,16.30
2013,09,30,17,23,16.90
2013,09,30,17,24,20.70
2013,09,30,17,25,8.90
2013,09,30,17,26,12.50
2013,09,30,17,27,8.80
2013,09,30,17,28,7.50
2013,09,30,17,29,13.40
2013,09,30,17,30,13.80
2013,09,30,17,31,12.20
2013,09,30,17,32,9.90
2013,09,30,17,33,4.10
2013,09,30,17,34,6.20
2013,09,30,17,35,7.70
2013,09,30,17,36,9.20
2013,09,30,17,37,8.90
2013,09,30,17,38,8.50
2013,09,30,17,39,9.50
2013,09,30,17,40,6.20
2013,09,30,17,41,7.30
2013,09,30,17,42,6.80
2013,09,30,17,43,5.50
2013,09,30,17,44,8.00
2013,09,30,17,45,8.70
2013,09,30,17,46,6.00
2013,09,30,17,47,4.30
2013,09,30,17,48,7.40
2013,09,30,17,49,8.80
2013,09,30,17,50,0.80
2013,09,30,17,51,8.70
2013,09,30,17,52,10.20
2013,09,30,17,53,9.30
2013,09,30,17,54,1.80